Change the Weather History Date:

Saturday, August 17, 2013

  Actual Average Record
Temperature  
Mean Temperature 76 °F -  
Max Temperature 88 °F 82 °F 97 °F (1986)
Min Temperature 64 °F 56 °F 48 °F (2005)
Cooling Degree Days 10    
Growing Degree Days 26 (Base 50)    
Moisture  
Dew Point 37 °F    
Average Humidity 26    
Maximum Humidity 37    
Minimum Humidity 17    
Precipitation  
Precipitation 0.00 in - - ()
Sea Level Pressure  
Sea Level Pressure 29.94 in    
Wind  
Wind Speed 6 mph (North)    
Max Wind Speed 14 mph    
Max Gust Speed 20 mph    
Visibility 10 miles    
Events      
Averages and records for this station are not official NWS values.
T = Trace of Precipitation, MM = Missing Value Source: NWS Daily Summary

Daily Weather History Graph

Daily Weather History Graph

Search for Another Location

Airport or City:

Trip Planner

Search our weather history database for the weather conditions in past years. The results will help you decide how hot, cold, wet, or windy it might be!

Date:

Astronomy

Aug. 17, 2013 Rise Set
Actual Time 6:37 AM MDT 8:15 PM MDT
Civil Twilight 6:08 AM MDT 8:44 PM MDT
Nautical Twilight 5:34 AM MDT 9:18 PM MDT
Astronomical Twilight 4:57 AM MDT 9:55 PM MDT
Moon 5:34 PM MDT (8/17) 2:44 AM MDT (8/17)
Length of Visible Light 14h 35m
Length of Day
13h 38m
Waxing Gibbous, 85% of the Moon is Illuminated
Aug 17
Waxing Gibbous
Aug 20
Full
Aug 28
Last Quarter
Sep 5
New
Sep 12
First Quarter

Hourly Weather History & Observations

Time (MDT) Temp. Dew Point Humidity Pressure Visibility Wind Dir Wind Speed Gust Speed Precip Events Conditions
12:53 AM 71.1 °F 30.0 °F 22% 29.89 in 10.0 mi NE 8.1 mph - N/A   Clear
1:53 AM 68.0 °F 32.0 °F 26% 29.89 in 10.0 mi East 3.5 mph - N/A   Clear
2:53 AM 64.0 °F 33.1 °F 31% 29.90 in 10.0 mi North 6.9 mph - N/A   Clear
3:53 AM 66.9 °F 33.1 °F 28% 29.89 in 10.0 mi NE 3.5 mph - N/A   Clear
4:53 AM 68.0 °F 32.0 °F 26% 29.89 in 10.0 mi NNE 10.4 mph - N/A   Clear
5:53 AM 66.0 °F 32.0 °F 28% 29.91 in 10.0 mi Calm Calm - N/A   Clear
6:53 AM 64.0 °F 32.0 °F 30% 29.93 in 10.0 mi NE 6.9 mph - N/A   Clear
7:53 AM 68.0 °F 34.0 °F 28% 29.93 in 10.0 mi East 4.6 mph - N/A   Clear
8:53 AM 75.0 °F 33.1 °F 22% 29.92 in 10.0 mi Calm Calm - N/A   Clear
9:53 AM 77.0 °F 35.1 °F 22% 29.96 in 10.0 mi SE 4.6 mph - N/A   Clear
10:53 AM 80.1 °F 32.0 °F 17% 29.96 in 10.0 mi SSE 4.6 mph - N/A   Clear
11:53 AM 84.0 °F 37.0 °F 19% 29.95 in 10.0 mi South 6.9 mph - N/A   Partly Cloudy
12:53 PM 82.9 °F 39.9 °F 22% 29.96 in 10.0 mi SSW 6.9 mph - N/A   Clear
1:53 PM 80.1 °F 44.1 °F 28% 29.99 in 10.0 mi West 4.6 mph - N/A   Overcast
2:53 PM 87.1 °F 37.9 °F 18% 29.95 in 10.0 mi SE 12.7 mph 17.3 mph N/A   Clear
3:53 PM 84.9 °F 39.0 °F 20% 29.92 in 10.0 mi SSW 9.2 mph - N/A   Clear
4:53 PM 82.9 °F 39.9 °F 22% 29.93 in 10.0 mi SW 11.5 mph - N/A   Mostly Cloudy
5:15 PM 80.6 °F 42.8 °F 26% 30.22 in 10.0 mi WNW 13.8 mph 19.6 mph N/A   Mostly Cloudy
5:53 PM 81.0 °F 41.0 °F 24% 29.95 in 10.0 mi North 9.2 mph - N/A   Clear
6:53 PM 80.1 °F 39.9 °F 24% 29.95 in 10.0 mi North 4.6 mph - N/A   Clear
7:53 PM 79.0 °F 39.0 °F 24% 29.91 in 10.0 mi NW 4.6 mph - N/A   Clear
8:53 PM 73.9 °F 41.0 °F 30% 29.90 in 10.0 mi NW 3.5 mph - N/A   Clear
9:53 PM 73.0 °F 39.9 °F 30% 29.92 in 10.0 mi West 3.5 mph - N/A   Clear
10:53 PM 66.0 °F 39.0 °F 37% 29.95 in 10.0 mi NNE 9.2 mph - N/A   Clear
11:53 PM 66.0 °F 37.9 °F 36% 29.94 in 10.0 mi NNW 3.5 mph - N/A   Clear